Location: Fours
(44.3167°N, 6.7000°E)
Time: 20:49:55
(UTC+00:00)

N. Korean satellite - Pass Details

Date: 29 September 2021
Orbit: 450 x 495 km, 97.3° (Epoch: 25 October)

Event Time Altitude Azimuth Distance (km) Brightness Sun altitude
Rises 04:46:44 0° 14° (NNE) 2,541 10.5 -8.3°
Reaches altitude 10° 04:48:48 10° 16° (NNE) 1,665 9.6 -8.0°
Maximum altitude 04:52:23 73° 102° (ESE) 512 6.9 -7.3°
Drops below altitude 10° 04:55:59 10° 187° (S) 1,674 9.2 -6.7°
Sets 04:58:03 0° 189° (S) 2,555 10.1 -6.3°
